Toledo, OH

5:30 PM EST on November 17, 2017 (GMT -0500)
Toledo Express

Weather History for KTOL - September, 2013

Change the Weather History Date:

Sunday, September 15, 2013

  Actual Average Record
Temperature  
Mean Temperature 57 °F 65 °F  
Max Temperature 70 °F 76 °F 100 °F (1939)
Min Temperature 43 °F 53 °F 39 °F (1975)
Degree Days  
Heating Degree Days 8 3  
Month to date heating degree days 35 27  
Since 1 July heating degree days 64 41  
Cooling Degree Days 0 3  
Month to date cooling degree days 73 59  
Year to date cooling degree days 755 761  
Growing Degree Days 7 (Base 50)    
Moisture  
Dew Point 48 °F    
Average Humidity 72    
Maximum Humidity 100    
Minimum Humidity 44    
Precipitation  
Precipitation 0.11 in 0.10 in 1.46 in (1965)
Month to date precipitation 1.24 1.42  
Year to date precipitation 28.03 24.74  
Snow  
Snow 0.00 in 0.00 in - ()
Month to date snowfall 0.0 0.0  
Since 1 July snowfall 0.0 0.0  
Since 1 September snowfall 0.0 0.0  
Snow Depth 0.00 in    
Sea Level Pressure  
Sea Level Pressure 30.11 in    
Wind  
Wind Speed 3 mph (West)    
Max Wind Speed 17 mph    
Max Gust Speed 21 mph    
Visibility 9 miles    
Events Rain    
T = Trace of Precipitation, MM = Missing Value Source: NWS Daily Summary

Daily Weather History Graph

Daily Weather History Graph

Search for Another Location

Airport or City:

Trip Planner

Search our weather history database for the weather conditions in past years. The results will help you decide how hot, cold, wet, or windy it might be!

Date:

Astronomy

Sep. 15, 2013 Rise Set
Actual Time 7:15 AM EDT 7:44 PM EDT
Civil Twilight 6:47 AM EDT 8:11 PM EDT
Nautical Twilight 6:15 AM EDT 8:44 PM EDT
Astronomical Twilight 5:41 AM EDT 9:18 PM EDT
Moon 5:13 PM EDT (9/15) 2:49 AM EDT (9/15)
Length of Visible Light 13h 24m
Length of Day
12h 28m
Waxing Gibbous, 82% of the Moon is Illuminated
Sep 15
Waxing Gibbous
Sep 19
Full
Sep 26
Last Quarter
Oct 4
New
Oct 11
First Quarter

Hourly Weather History & Observations

Time (EDT) Temp. Dew Point Humidity Pressure Visibility Wind Dir Wind Speed Gust Speed Precip Events Conditions
12:52 AM 46.9 °F 46.0 °F 97% 30.11 in 10.0 mi Calm Calm - N/A   Clear
1:52 AM 45.0 °F 44.1 °F 97% 30.11 in 8.0 mi Calm Calm - N/A   Clear
2:52 AM 45.0 °F 44.1 °F 97% 30.10 in 9.0 mi Calm Calm - N/A   Clear
3:52 AM 45.0 °F 44.1 °F 97% 30.10 in 10.0 mi Calm Calm - N/A   Clear
4:52 AM 44.1 °F 43.0 °F 96% 30.11 in 9.0 mi Calm Calm - N/A   Clear
5:52 AM 44.1 °F 43.0 °F 96% 30.12 in 10.0 mi Calm Calm - N/A   Clear
6:52 AM 44.1 °F 43.0 °F 96% 30.13 in 10.0 mi Calm Calm - N/A   Clear
7:52 AM 45.0 °F 44.1 °F 97% 30.15 in 10.0 mi Calm Calm - N/A   Clear
8:52 AM 50.0 °F 46.9 °F 89% 30.14 in 10.0 mi Calm Calm - N/A   Clear
9:52 AM 54.0 °F 48.0 °F 80% 30.14 in 10.0 mi South 3.5 mph - N/A   Clear
10:52 AM 60.1 °F 48.9 °F 67% 30.13 in 10.0 mi SW 6.9 mph - N/A   Clear
11:52 AM 64.0 °F 48.9 °F 58% 30.12 in 10.0 mi SSW 6.9 mph - N/A   Clear
12:52 PM 66.0 °F 48.9 °F 54% 30.09 in 10.0 mi SSW 6.9 mph - N/A   Clear
1:52 PM 66.9 °F 46.0 °F 47% 30.09 in 10.0 mi WSW 6.9 mph - N/A   Scattered Clouds
2:52 PM 69.1 °F 46.0 °F 44% 30.07 in 10.0 mi West 4.6 mph - N/A   Overcast
3:52 PM 66.9 °F 48.9 °F 52% 30.04 in 10.0 mi Calm Calm - 0.00 in Rain Light Rain
4:52 PM 66.9 °F 48.0 °F 51% 30.03 in 10.0 mi Calm Calm - 0.00 in Rain Light Rain
5:52 PM 64.0 °F 53.1 °F 67% 30.06 in 10.0 mi North 6.9 mph - 0.00 in   Overcast
6:52 PM 60.1 °F 54.0 °F 80% 30.12 in 6.0 mi North 6.9 mph - 0.00 in Rain Light Rain
7:52 PM 55.9 °F 54.0 °F 93% 30.11 in 10.0 mi NE 3.5 mph - 0.05 in Rain Light Rain
8:52 PM 55.9 °F 54.0 °F 93% 30.12 in 10.0 mi North 3.5 mph - 0.02 in Rain Light Rain
9:52 PM 55.9 °F 54.0 °F 93% 30.13 in 8.0 mi North 3.5 mph - 0.01 in Rain Light Rain
10:52 PM 55.0 °F 55.0 °F 100% 30.14 in 4.0 mi Calm Calm - 0.03 in Rain Light Rain
11:52 PM 55.0 °F 54.0 °F 96% 30.13 in 6.0 mi Calm Calm - 0.00 in   Overcast